SKRG Airport Information

Runway Information
Runway 18 Length 11483 ft width 148 ft
Elevation 7025 ft Threshold 0 ft Heading 180
Runway 36 Length 11483 ft Width 148 ft
Elevation 6967 ft Threshold 0 ft Heading 360
Airport Frequencies
Type APP Name MEDELLIN A Frequency 121.1 MHZ
Type ATIS Name ATIS Frequency 115.1 MHZ
Type GND Name GND Frequency 121.9 MHZ
Type INFO Name MEDELLIN F Frequency 127.2 MHZ
Type RDO Name MEDELLIN R Frequency 348.8 MHZ
Type RDO Name MEDELLIN R Frequency 891.8 MHZ
Type TWR Name TWR Frequency 118.6 MHZ
Airport Navaids
Type NDB Name Medellin Frequency 274 KHZ
Type VOR-DME Name Marinilla Frequency 113000 KHZ
Type VOR-DME Name Rionegro Frequency 115100 KHZ
Airport Weather Information & NOTAM
ADDS - METARS form results

(1530 UTC 21 April 2018)
 
METAR text: SKRG 211500Z 14007KT 9999 FEW015 SCT200 21/12 A3029
Conditions at: SKRG (RIONEGRO/JOSE MA, CO) observed 1500 UTC 21 April 2018
Temperature: 21.0°C (70°F)
Dewpoint: 12.0°C (54°F) [RH = 56%]
Pressure (altimeter): 30.29 inches Hg (1025.8 mb)
Winds: from the SE (140 degrees) at 8 MPH (7 knots; 3.6 m/s)
Visibility: 6 or more miles (10+ km)
Ceiling: at least 12,000 feet AGL
Clouds: few clouds at 1500 feet AGL
scattered clouds at 20000 feet AGL
Weather: no significant weather observed at this time